Kezdőlap
METAR-TAF:

METAR-TAF

Repülőterek :

Wahoo, Nebraska, Amerikai Egyesült Államok

földrajzi szélesség: 41-14-26N, földrajzi hosszúság: 096-35-40W, magasság: 373 m

Jelenlegi meteorológiai megfigyelések

A jelentés 16 perccel ezelõtt készült, 03:55 UTC
Délkeleti szél 9 kt
Hőmérséklet 28°C
Páratartalom 58%
Légköri nyomás 1008 hPa
Látótávolság: 16.1 km
Derült ég

METAR: KAHQ 130355Z AUTO 14009KT 10SM CLR 28/19 A2977 RMK AO2 T02770188

Idő: 23:11 (04:11 UTC)


TAF: hiányzik

Meteorológiai megfigyelések és előrejelzések több, mint 4000 repülőtéren (METAR és TAF jelentéseket).

A térképen piros és sárga pontok jelzik az elérhető meteorológiai állomásokat.

Mozgassa az egeret a pont fölött, hogy megjelenjen az állomás neve.

Azután kattintson az időjárási megfigyelések és előrejelzések megtekintéséhez.

A térkép megváltoztatása: kattintson a fekete keresztel jelölt zöld gombra ráközelítéshez, a vonallal jelölt zöld gombra távolításhoz, vagy a zöld nyilakra a szomszédos térképek eléréséhez.


METAR-TAF: